Nashua, NH

7:29 PM EST on December 10, 2019 (GMT -0500)
Boire

Weather History for KASH - August, 2019

Change the Weather History Date:

Saturday, August 10, 2019

  Actual Average Record
Temperature  
Mean Temperature 68 °F -  
Max Temperature 78 °F 81 °F 99 °F (1949)
Min Temperature 57 °F 58 °F 40 °F (1964)
Cooling Degree Days 2    
Growing Degree Days 18 (Base 50)    
Moisture  
Dew Point 56 °F    
Average Humidity 69    
Maximum Humidity 90    
Minimum Humidity 48    
Precipitation  
Precipitation 0.02 in - - ()
Sea Level Pressure  
Sea Level Pressure 29.79 in    
Wind  
Wind Speed 5 mph (WNW)    
Max Wind Speed 15 mph    
Max Gust Speed 22 mph    
Visibility 10 miles    
Events Rain    
Averages and records for this station are not official NWS values.
T = Trace of Precipitation, MM = Missing Value Source: NWS Daily Summary

Daily Weather History Graph

Daily Weather History Graph

Search for Another Location

Airport or City:

Astronomy

Aug. 10, 2019 Rise Set
Actual Time 5:46 AM EDT 7:55 PM EDT
Civil Twilight 5:15 AM EDT 8:26 PM EDT
Nautical Twilight 4:37 AM EDT 9:04 PM EDT
Astronomical Twilight 3:55 AM EDT 9:46 PM EDT
Moon 4:37 PM EDT (8/10) 1:19 AM EDT (8/10)
Length of Visible Light 15h 10m
Length of Day
14h 08m
Waxing Gibbous, 79% of the Moon is Illuminated
Aug 10
Waxing Gibbous
Aug 15
Full
Aug 23
Last Quarter
Aug 30
New
Sep 5
First Quarter

Hourly Weather History & Observations

Time (EDT) Temp. Dew Point Humidity Pressure Visibility Wind Dir Wind Speed Gust Speed Precip Events Conditions
12:56 AM 63.0 °F 55.0 °F 75% 29.75 in 10.0 mi Calm Calm - N/A   Clear
1:56 AM 64.0 °F 55.0 °F 73% 29.75 in 10.0 mi Variable 3.5 mph - N/A   Scattered Clouds
2:56 AM 63.0 °F 55.0 °F 75% 29.74 in 10.0 mi Calm Calm - N/A   Scattered Clouds
3:56 AM 62.1 °F 55.9 °F 80% 29.75 in 10.0 mi Calm Calm - N/A   Partly Cloudy
4:56 AM 60.1 °F 55.9 °F 86% 29.75 in 10.0 mi Calm Calm - N/A   Partly Cloudy
5:56 AM 60.1 °F 55.0 °F 83% 29.76 in 10.0 mi SW 3.5 mph - N/A   Clear
6:56 AM 64.0 °F 55.0 °F 73% 29.76 in 10.0 mi West 4.6 mph - N/A   Clear
7:56 AM 66.0 °F 57.0 °F 73% 29.77 in 10.0 mi West 8.1 mph - N/A   Clear
8:56 AM 70.0 °F 57.0 °F 63% 29.77 in 10.0 mi WNW 12.7 mph 18.4 mph N/A   Clear
9:56 AM 72.0 °F 57.0 °F 59% 29.76 in 10.0 mi WNW 11.5 mph - N/A   Partly Cloudy
10:56 AM 73.9 °F 54.0 °F 50% 29.75 in 10.0 mi WNW 13.8 mph - N/A   Mostly Cloudy
11:56 AM 75.9 °F 55.9 °F 50% 29.75 in 10.0 mi West 12.7 mph - N/A   Mostly Cloudy
12:56 PM 75.0 °F 54.0 °F 48% 29.75 in 10.0 mi West 12.7 mph 21.9 mph N/A   Mostly Cloudy
1:56 PM 73.0 °F 60.1 °F 64% 29.75 in 10.0 mi NW 15.0 mph 21.9 mph 0.00 in Rain Light Rain
2:56 PM 64.0 °F 61.0 °F 90% 29.78 in 10.0 mi North - - 0.02 in Rain Light Rain
3:56 PM 69.1 °F 59.0 °F 70% 29.78 in 10.0 mi West 9.2 mph 19.6 mph 0.00 in Rain Light Rain
4:56 PM 70.0 °F 59.0 °F 68% 29.77 in 10.0 mi WNW 4.6 mph - N/A   Scattered Clouds
5:56 PM 72.0 °F 61.0 °F 68% 29.78 in 10.0 mi West 5.8 mph - N/A   Scattered Clouds
6:56 PM 72.0 °F 53.1 °F 51% 29.81 in 10.0 mi North 9.2 mph 19.6 mph N/A   Scattered Clouds
7:56 PM 66.0 °F 53.1 °F 63% 29.84 in 10.0 mi West 3.5 mph - N/A   Scattered Clouds
8:56 PM 64.0 °F 51.1 °F 63% 29.86 in 10.0 mi West 3.5 mph - N/A   Scattered Clouds
9:56 PM 62.1 °F 52.0 °F 70% 29.88 in 10.0 mi WNW 6.9 mph - N/A   Partly Cloudy
10:56 PM 63.0 °F 51.1 °F 65% 29.89 in 10.0 mi West 5.8 mph - N/A   Clear
11:56 PM 57.0 °F 53.1 °F 87% 29.90 in 10.0 mi NNW 3.5 mph - N/A   Clear